Date,TemperatureHighF,TemperatureAvgF,TemperatureLowF,DewpointHighF,DewpointAvgF,DewpointLowF,HumidityHigh,HumidityAvg,HumidityLow,PressureMaxIn,PressureMinIn,WindSpeedMaxMPH,WindSpeedAvgMPH,GustSpeedMaxMPH,PrecipitationSumIn
2013-2-1,42,36,27,32,19,7,78,53,24,30.19,29.94,9,3,0,0.00
2013-2-2,53,37,22,42,24,7,99,70,20,30.17,29.92,5,1,0,0.18
2013-2-3,57,44,33,40,33,26,99,70,32,29.93,29.80,14,3,0,0.00
2013-2-4,52,40,28,36,30,27,99,72,39,29.95,29.82,4,1,0,0.00
2013-2-5,59,46,31,49,42,31,99,86,64,29.85,29.77,6,1,0,0.00
2013-2-6,69,50,37,49,39,32,99,72,27,30.00,29.84,7,1,0,0.00
2013-2-7,50,45,40,46,43,35,99,94,57,29.96,29.73,7,2,0,0.24
2013-2-8,55,48,36,52,45,35,99,93,73,29.99,29.72,6,2,0,0.08
2013-2-9,64,44,28,36,32,24,99,70,22,30.11,29.96,6,1,0,0.00
2013-2-10,61,49,38,53,42,31,99,77,52,30.12,29.86,10,2,0,1.03
2013-2-11,57,52,48,56,52,48,99,99,99,29.95,29.83,3,1,0,0.53
2013-2-12,57,49,44,50,44,36,99,88,46,29.94,29.66,7,2,0,0.30
2013-2-13,54,45,38,51,43,36,99,93,80,29.79,29.54,14,3,0,0.06
2013-2-14,58,44,35,37,35,31,99,73,37,29.90,29.78,10,2,0,0.00
2013-2-15,63,46,31,42,35,30,99,71,34,29.94,29.78,8,2,0,0.00
2013-2-16,46,38,29,36,23,12,85,58,33,29.95,29.77,9,3,0,0.00
2013-2-17,46,34,23,23,16,11,79,51,24,30.11,29.94,10,2,0,0.00
2013-2-18,60,43,24,29,26,23,99,58,29,30.17,29.92,9,2,0,0.00
2013-2-19,58,47,40,49,33,20,99,64,29,29.96,29.81,12,3,0,0.35
2013-2-20,52,41,28,22,16,8,77,38,20,30.01,29.91,8,3,0,0.00
2013-2-21,67,49,29,46,24,16,94,40,18,29.99,29.74,6,2,0,0.07
2013-2-22,47,42,41,46,42,41,99,99,96,29.99,29.84,8,4,0,1.49
2013-2-23,53,46,41,51,46,40,99,98,92,29.84,29.65,4,2,0,0.82
2013-2-24,65,50,37,48,38,28,99,69,28,29.84,29.70,5,1,0,0.00
2013-2-25,50,45,37,41,35,30,99,72,48,29.88,29.70,11,4,0,0.00
2013-2-26,51,43,37,49,41,37,99,93,74,29.70,29.41,9,4,0,0.98
2013-2-27,60,49,41,38,35,33,79,60,37,29.75,29.63,11,4,0,0.00
2013-2-28,48,42,36,37,31,26,88,66,50,29.80,29.65,12,4,0,0.00